DW8849 Weather Reports


time (UTC)temp
C
wind
direction
speed
KPH
gust
KPH
rain 1hr
cm
rain 24hr
cm
rain mn
cm
humidity
%
barometer
mb
20260504100507 16 136 3.2 4.8 0.00 0.00 0.00 88 1016.0
20260504090123 16 117 0.0 0.0 0.00 0.00 0.00 85 1016.4
20260504081556 16 103 1.6 4.8 0.00 0.00 0.00 83 1016.7
20260504081055 16 102 0.0 3.2 0.00 0.00 0.00 83 1016.8
20260504080556 16 111 0.0 6.4 0.00 0.00 0.00 83 1016.9
20260504050534 16 150 3.2 6.4 0.00 0.00 0.00 84 1019.2
20260504045632 16 136 3.2 4.8 0.00 0.00 0.00 84 1019.1
20260504045032 16 140 3.2 4.8 0.00 0.00 0.00 84 1019.3
20260504044541 16 148 1.6 4.8 0.00 0.00 0.00 84 1019.3
20260504044031 16 146 3.2 4.8 0.00 0.00 0.00 83 1019.3
20260504043531 16 140 3.2 4.8 0.00 0.00 0.00 84 1019.4
20260504043035 16 150 3.2 4.8 0.00 0.00 0.00 84 1019.4
20260504042531 16 144 3.2 4.8 0.00 0.00 0.00 83 1019.5
20260504042030 16 137 1.6 4.8 0.00 0.00 0.00 83 1019.6
20260504041530 16 140 1.6 4.8 0.00 0.00 0.00 83 1019.6
20260504041030 17 142 3.2 4.8 0.00 0.00 0.00 82 1019.5
20260504040532 17 140 3.2 4.8 0.00 0.00 0.00 82 1019.5
20260504040033 17 143 3.2 4.8 0.00 0.00 0.00 83 1019.5
20260504035530 17 142 3.2 4.8 0.00 0.00 0.00 83 1019.4
20260504035029 17 145 3.2 4.8 0.00 0.00 0.00 83 1019.5
20260504034538 17 131 3.2 4.8 0.00 0.00 0.00 82 1019.4
20260504034030 17 141 3.2 4.8 0.00 0.00 0.00 81 1019.5
20260504033529 17 142 3.2 6.4 0.00 0.00 0.00 81 1019.4
20260504033039 17 134 3.2 4.8 0.00 0.00 0.00 81 1019.4
20260504032529 17 149 3.2 4.8 0.00 0.00 0.00 80 1019.3
20260504032029 17 151 3.2 4.8 0.00 0.00 0.00 80 1019.4
20260504031533 17 149 1.6 3.2 0.00 0.00 0.00 79 1019.4
20260504031029 18 149 1.6 3.2 0.00 0.00 0.00 79 1019.4
20260504030528 18 144 1.6 4.8 0.00 0.00 0.00 77 1019.4
20260504030028 18 145 3.2 4.8 0.00 0.00 0.00 76 1019.3
20260504025528 18 140 1.6 4.8 0.00 0.00 0.00 75 1019.2
20260504025031 18 136 1.6 6.4 0.00 0.00 0.00 75 1019.2
20260504024530 18 132 3.2 9.7 0.00 0.00 0.00 74 1019.1
20260504024026 18 127 4.8 11.3 0.00 0.00 0.00 74 1019.0
20260504023527 18 124 4.8 11.3 0.00 0.00 0.00 74 1018.9
20260504023026 18 113 4.8 9.7 0.00 0.00 0.00 74 1018.9
20260504022526 19 120 4.8 6.4 0.00 0.00 0.00 74 1018.9
20260504022025 19 123 3.2 9.7 0.00 0.00 0.00 73 1019.0
20260504021532 19 117 4.8 11.3 0.00 0.00 0.00 72 1018.9
20260504021024 19 117 4.8 11.3 0.00 0.00 0.00 71 1018.7
20260504020525 20 125 4.8 11.3 0.00 0.00 0.00 70 1018.9
20260504020025 20 103 4.8 11.3 0.00 0.00 0.00 70 1018.8
20260504015524 20 114 4.8 9.7 0.00 0.00 0.00 70 1018.8
20260504015025 20 121 4.8 11.3 0.00 0.00 0.00 70 1018.8
20260504014524 20 119 6.4 11.3 0.00 0.00 0.00 70 1018.8
20260504014025 20 122 4.8 11.3 0.00 0.00 0.00 69 1018.7
20260504013528 20 124 6.4 12.9 0.00 0.00 0.00 69 1018.8
20260504013033 20 123 8.0 12.9 0.00 0.00 0.00 67 1018.8
20260504012524 20 130 8.0 12.9 0.00 0.00 0.00 67 1018.7
20260504012124 20 139 8.0 12.9 0.00 0.00 0.00 67 1018.6
20260504011522 21 122 8.0 14.5 0.00 0.00 0.00 66 1018.7
20260504011021 21 132 8.0 14.5 0.00 0.00 0.00 65 1018.7
20260504010525 21 127 8.0 12.9 0.00 0.00 0.00 64 1018.8
20260504010021 21 140 9.7 14.5 0.00 0.00 0.00 63 1018.7
20260504005521 21 136 11.3 16.1 0.00 0.00 0.00 62 1018.8
20260504005021 22 129 11.3 17.7 0.00 0.00 0.00 61 1018.9
20260504004521 22 138 14.5 19.3 0.00 0.00 0.00 59 1018.9
20260504004019 22 138 12.9 19.3 0.00 0.00 0.00 59 1018.9
20260504003519 22 148 12.9 19.3 0.00 0.00 0.00 58 1018.9
20260504003019 22 136 12.9 22.5 0.00 0.00 0.00 57 1019.0
20260504002519 22 141 17.7 22.5 0.00 0.00 0.00 56 1019.0
20260504002019 22 155 16.1 22.5 0.00 0.00 0.00 55 1018.9
20260504001519 23 144 17.7 24.1 0.00 0.00 0.00 55 1018.9
20260504001019 23 136 16.1 22.5 0.00 0.00 0.00 54 1018.9
20260504000521 23 140 16.1 22.5 0.00 0.00 0.00 53 1019.0
20260504000020 23 130 14.5 24.1 0.00 0.00 0.00 54 1018.9
20260503235517 23 138 16.1 24.1 0.00 0.00 0.00 54 1018.9
20260503235017 23 131 14.5 27.4 0.00 0.00 0.00 52 1018.9
20260503234517 23 135 19.3 27.4 0.00 0.00 0.00 52 1018.9
20260503234023 23 137 19.3 27.4 0.00 0.00 0.00 52 1018.9
20260503233517 23 123 17.7 30.6 0.00 0.00 0.00 52 1018.8
20260503233016 23 135 22.5 30.6 0.00 0.00 0.00 51 1018.9
20260503232519 24 149 19.3 25.7 0.00 0.00 0.00 50 1019.0
20260503232020 24 145 16.1 24.1 0.00 0.00 0.00 50 1019.0
20260503231515 24 130 16.1 24.1 0.00 0.00 0.00 48 1019.0
20260503231016 24 144 16.1 22.5 0.00 0.00 0.00 49 1019.0
20260503230515 24 124 11.3 25.7 0.00 0.00 0.00 48 1019.0
20260503230014 24 128 19.3 25.7 0.00 0.00 0.00 48 1019.0
20260503225514 24 110 11.3 24.1 0.00 0.00 0.00 49 1019.1
20260503225014 25 115 17.7 24.1 0.00 0.00 0.00 48 1019.1
20260503224514 25 128 16.1 24.1 0.00 0.00 0.00 51 1019.1
20260503224023 25 132 17.7 24.1 0.00 0.00 0.00 48 1019.1
20260503223516 25 132 16.1 29.0 0.00 0.00 0.00 48 1019.2
20260503223013 25 128 20.9 29.0 0.00 0.00 0.00 50 1019.1
20260503222512 25 145 17.7 24.1 0.00 0.00 0.00 49 1019.3
20260503222013 25 109 12.9 24.1 0.00 0.00 0.00 49 1019.3
20260503221513 25 97 14.5 24.1 0.00 0.00 0.00 48 1019.4
20260503221011 25 107 17.7 27.4 0.00 0.00 0.00 48 1019.4
20260503220510 25 109 14.5 27.4 0.00 0.00 0.00 50 1019.5
20260503220010 25 142 14.5 27.4 0.00 0.00 0.00 48 1019.6
20260503215509 25 130 19.3 25.7 0.00 0.00 0.00 48 1019.5
20260503215008 25 150 19.3 35.4 0.00 0.00 0.00 50 1019.7
20260503214508 25 114 19.3 35.4 0.00 0.00 0.00 50 1019.6
20260503214012 25 121 19.3 29.0 0.00 0.00 0.00 50 1019.8
20260503213506 24 145 20.9 30.6 0.00 0.00 0.00 50 1019.9
20260503213010 25 126 17.7 27.4 0.00 0.00 0.00 50 1020.0
20260503212505 25 113 14.5 27.4 0.00 0.00 0.00 47 1020.0
20260503212004 25 133 17.7 29.0 0.00 0.00 0.00 46 1020.1
20260503211507 25 126 16.1 29.0 0.00 0.00 0.00 50 1020.3
20260503211006 25 146 17.7 29.0 0.00 0.00 0.00 48 1020.4
20260503210503 25 122 19.3 30.6 0.00 0.00 0.00 46 1020.4
20260503210002 25 135 17.7 30.6 0.00 0.00 0.00 47 1020.5
20260503205501 25 107 16.1 29.0 0.00 0.00 0.00 45 1020.5
20260503205003 25 101 16.1 24.1 0.00 0.00 0.00 46 1020.6
20260503204607 25 157 16.1 27.4 0.00 0.00 0.00 47 1020.7
20260503204059 25 109 17.7 27.4 0.00 0.00 0.00 44 1020.8
20260503203559 25 86 12.9 24.1 0.00 0.00 0.00 44 1020.9
20260503203058 25 57 14.5 22.5 0.00 0.00 0.00 42 1020.8
20260503202600 25 101 12.9 24.1 0.00 0.00 0.00 44 1021.0
20260503202056 25 103 12.9 22.5 0.00 0.00 0.00 43 1021.1
20260503201556 25 96 14.5 24.1 0.00 0.00 0.00 39 1021.2
20260503201057 25 114 14.5 24.1 0.00 0.00 0.00 42 1021.1
20260503200554 25 96 16.1 25.7 0.00 0.00 0.00 42 1021.3
20260503200054 25 132 14.5 24.1 0.00 0.00 0.00 44 1021.4
20260503195552 25 104 16.1 20.9 0.00 0.00 0.00 42 1021.4
20260503195053 25 64 14.5 20.9 0.00 0.00 0.00 47 1021.4
20260503194555 25 123 14.5 20.9 0.00 0.00 0.00 43 1021.6
20260503194051 25 87 12.9 29.0 0.00 0.00 0.00 43 1021.6
20260503193551 25 117 17.7 29.0 0.00 0.00 0.00 45 1021.7
20260503193054 25 109 14.5 22.5 0.00 0.00 0.00 45 1021.8
20260503192551 25 128 14.5 22.5 0.00 0.00 0.00 49 1021.7
20260503192053 25 98 12.9 25.7 0.00 0.00 0.00 44 1021.8
20260503191549 25 127 17.7 25.7 0.00 0.00 0.00 43 1021.8
20260503191049 25 103 11.3 20.9 0.00 0.00 0.00 42 1021.8
20260503190548 25 111 8.0 20.9 0.00 0.00 0.00 44 1022.0
20260503190049 25 97 11.3 20.9 0.00 0.00 0.00 39 1022.1
20260503185548 25 148 12.9 20.9 0.00 0.00 0.00 45 1022.1
20260503185049 25 130 12.9 20.9 0.00 0.00 0.00 40 1022.3
20260503184549 25 75 11.3 22.5 0.00 0.00 0.00 44 1022.3
20260503184048 25 104 9.7 17.7 0.00 0.00 0.00 44 1022.3
20260503183548 25 127 6.4 22.5 0.00 0.00 0.00 39 1022.5
20260503183048 25 85 16.1 22.5 0.00 0.00 0.00 42 1022.5
20260503182547 25 84 11.3 22.5 0.00 0.00 0.00 39 1022.6
20260503182045 25 100 8.0 20.9 0.00 0.00 0.00 41 1022.6
20260503181617 25 121 16.1 24.1 0.00 0.00 0.00 39 1022.7
20260503181045 25 87 14.5 24.1 0.00 0.00 0.00 42 1022.8
20260503180545 25 124 12.9 22.5 0.00 0.00 0.00 38 1022.9
20260503180045 25 74 14.5 20.9 0.00 0.00 0.00 41 1022.9
20260503175544 25 130 9.7 20.9 0.00 0.00 0.00 40 1023.1
20260503175044 25 115 14.5 24.1 0.00 0.00 0.00 40 1023.0
20260503174543 25 98 12.9 24.1 0.00 0.00 0.00 37 1023.1
20260503174043 25 73 11.3 20.9 0.00 0.00 0.00 37 1023.2
20260503173543 25 71 14.5 22.5 0.00 0.00 0.00 38 1023.3
20260503173053 24 90 12.9 22.5 0.00 0.00 0.00 41 1023.4
20260503172541 25 87 6.4 19.3 0.00 0.00 0.00 39 1023.5
20260503172042 25 86 12.9 20.9 0.00 0.00 0.00 37 1023.5
20260503171540 25 57 9.7 20.9 0.00 0.00 0.00 38 1023.6
20260503171039 25 136 11.3 19.3 0.00 0.00 0.00 39 1023.6
20260503170540 24 236 3.2 20.9 0.00 0.00 0.00 37 1023.8
20260503150520 22 109 1.6 11.3 0.00 0.00 0.00 61 1024.0
20260503131049 15 344 4.8 8.0 0.00 0.00 0.00 91 1023.1
20260503130550 15 346 4.8 8.0 0.00 0.00 0.00 91 1023.1
20260503110540 12 307 0.0 0.0 0.00 0.00 0.00 92 1021.9